SCP
0 0 0 0 0 0 0 0 0 0 0 0 0 0 0 0 0 1 1 1 1 1 1 1 1 1 1 1 1 1 1 1 1 1 1 1 1 1 1 1 1 1 0
0 0 0 0 0 0 0 0 0 0 0 0 0 1 1 0 0 1 1 1 1 1 1 1 1 1 1 1 1 1 1 1 1 1 1 1 1 1 1 1 1 1 1
0 0 0 0 0 0 0 0 0 0 0 0 0 1 1 1 1 1 1 1 1 1 1 1 1 1 1 1 1 1 1 1 1 1 1 1 1 1 1 1 1 1 1
0 0 0 0 0 0 0 0 0 0 0 0 0 0 1 1 1 0 0 0 0 1 1 1 1 1 1 1 1 1 1 1 1 1 1 1 1 0 0 0 1 1 1
0 0 0 0 0 0 0 0 0 0 0 0 0 0 0 0 0 0 0 0 0 0 0 1 1 1 1 1 1 1 1 1 1 1 1 0 0 0 0 0 0 1 1
0 0 0 0 0 0 0 0 0 0 0 0 0 0 0 0 0 0 0 0 0 0 0 0 0 0 0 1 1 1 1 1 1 1 0 0 0 0 0 0 0 0 1
0 0 0 0 0 0 0 0 0 0 0 0 0 0 0 0 0 0 0 0 0 0 0 0 0 0 0 0 0 0 0 0 0 0 0 0 0 0 0 0 0 0 1
0 0 0 0 0 0 0 0 0 0 0 0 0 0 0 0 0 0 0 0 0 0 0 0 0 0 0 0 0 0 0 0 0 0 0 0 0 0 0 0 0 0 0
0 0 0 0 0 0 0 0 0 0 0 0 0 0 0 0 0 0 0 0 0 0 0 0 0 0 0 0 0 0 0 0 0 1 0 0 0 0 0 0 0 0 0
0 0 0 0 0 0 0 0 0 0 0 0 0 0 0 0 0 0 0 0 0 0 0 0 0 0 0 0 0 0 0 0 0 0 0 0 0 0 0 1 0 0 0
0 0 0 0 0 0 0 0 0 0 0 0 0 0 0 0 0 0 0 0 0 0 0 0 0 0 0 0 0 0 0 0 0 0 0 0 0 0 0 0 0 0 0
0 0 0 0 0 0 0 0 0 0 0 0 0 0 0 0 0 0 0 0 0 0 0 0 0 0 0 0 0 0 0 0 0 0 0 0 0 0 0 1 1 0 0
0 0 0 0 0 0 0 0 0 0 0 0 0 0 0 0 0 0 0 0 0 0 0 0 0 0 0 0 0 0 0 0 0 0 0 0 0 0 0 1 1 1 1
0 0 0 0 0 0 0 0 0 0 0 0 0 0 0 0 0 0 0 0 0 0 0 0 0 0 0 0 0 0 0 0 0 0 0 0 0 0 0 1 1 1 1
0 0 0 0 0 0 0 0 0 0 0 0 0 0 0 0 0 0 0 0 0 0 0 0 0 0 0 0 0 0 0 0 0 0 0 0 0 0 0 0 0 1 1
0 0 0 0 0 0 0 0 0 0 0 0 0 0 0 0 0 0 0 0 0 0 0 0 0 0 0 0 0 0 0 0 0 0 0 0 0 0 0 0 0 0 0
0 0 0 0 0 0 0 0 0 0 0 0 0 0 0 0 0 0 0 0 0 0 0 0 0 0 0 0 0 0 0 0 0 0 0 0 0 0 0 0 0 0 0
0 0 0 0 0 0 0 0 0 0 0 0 0 0 0 0 0 0 0 0 0 0 0 0 0 0 0 0 0 0 0 0 0 0 0 0 0 0 0 0 0 0 0
0 0 0 0 0 0 0 0 0 0 0 0 0 0 0 0 0 0 0 0 0 0 0 0 0 0 0 0 0 0 0 0 0 0 0 0 0 0 0 0 0 0 0
0 0 0 0 0 0 0 0 0 0 0 0 0 0 0 0 0 0 0 0 0 0 0 0 0 0 0 0 0 0 0 0 0 0 0 0 0 0 0 0 0 0 0
0 0 0 0 0 0 0 0 0 0 0 0 0 0 0 0 0 0 0 0 0 0 0 0 0 0 0 0 0 0 0 0 0 0 0 0 0 0 0 0 1 0 0
0 0 0 0 0 0 0 0 0 0 0 0 0 0 0 0 0 0 0 0 0 0 0 0 0 0 0 0 0 0 0 0 0 0 0 0 0 0 0 0 1 1 0
0 0 0 0 0 0 0 0 0 0 0 0 0 0 0 0 0 0 0 0 0 0 0 0 0 0 0 0 0 0 0 0 0 0 0 0 0 0 0 0 0 0 0
0 0 0 0 0 0 0 0 0 0 0 0 0 0 0 0 0 0 0 0 0 0 0 0 0 0 0 0 0 0 0 0 0 0 0 0 0 0 0 0 0 0 0
1 1 1 1 0 0 0 0 0 0 0 0 0 0 0 0 0 0 0 0 0 0 0 0 0 0 0 0 0 0 0 0 0 0 0 0 0 0 0 0 0 0 0
1 1 1 1 0 0 0 0 0 0 0 0 0 0 0 0 0 0 0 0 0 0 0 0 0 0 0 0 0 0 0 0 0 0 0 0 0 0 0 0 0 0 0
Wind_Speed
1 1 2 2 2 2 1 2 3 4 5 5 5 5 5 4 4 4 4 9 9 9 9 8 8 8 7 6 6 7 8 8 8 9 9 8 8 8 7 7 7 6 5
2 2 2 2 2 2 1 2 4 4 4 4 5 5 5 4 4 5 4 5 9 10 10 10 9 9 9 8 8 8 9 9 10 9 9 9 9 8 8 8 7 6 6
2 2 2 2 2 2 3 3 4 3 3 3 4 4 4 4 4 4 3 3 4 8 10 11 11 11 11 11 11 11 11 11 11 10 10 9 9 8 8 8 7 6 6
3 3 3 2 2 3 2 2 3 3 3 3 3 3 3 3 3 3 3 3 3 4 6 11 12 12 12 12 12 12 12 11 11 10 10 10 9 9 8 8 7 7 6
4 3 2 2 3 3 2 3 3 2 2 2 2 2 2 2 3 4 4 4 3 4 3 7 11 12 12 13 13 13 12 12 11 11 10 10 9 9 8 8 7 7 7
4 3 2 3 4 3 3 3 3 2 2 1 2 3 2 2 3 3 4 4 4 4 4 4 4 7 12 13 13 12 12 12 11 11 10 10 10 9 9 9 8 8 7
4 3 2 3 3 3 2 3 3 2 1 1 2 2 2 3 3 2 3 3 4 4 4 4 3 3 5 11 12 12 12 11 10 10 10 9 8 8 8 8 8 8 8
3 2 2 2 3 2 3 3 3 2 1 1 1 1 1 2 3 2 2 3 3 3 4 5 4 5 4 3 7 11 11 11 10 10 9 9 8 8 8 8 8 8 8
3 3 3 2 2 2 2 2 2 2 2 2 2 2 1 1 0 2 2 3 3 3 3 4 5 5 6 4 4 7 10 10 10 10 9 9 9 8 8 8 9 9 9
3 3 3 3 3 3 2 2 3 2 2 2 2 2 1 2 2 1 2 2 3 4 3 4 5 5 5 4 5 8 10 9 10 10 10 10 10 10 9 9 9 9 9
3 3 3 3 3 3 3 3 3 2 2 1 1 2 2 2 1 2 1 1 2 2 2 3 3 3 4 4 4 6 8 9 10 11 11 11 11 11 11 10 9 9 9
2 3 3 3 3 3 3 2 2 2 2 3 2 2 2 2 1 2 1 1 1 0 2 2 2 2 3 4 5 8 8 8 9 10 11 11 11 11 11 10 10 10 10
2 2 3 2 2 2 2 2 2 2 2 2 2 2 2 2 1 2 2 1 1 0 1 2 2 2 3 3 3 6 6 7 8 9 10 11 11 11 11 10 10 10 10
2 3 2 2 2 2 2 3 2 2 2 2 2 2 2 2 3 2 2 1 1 1 2 2 2 3 3 3 3 4 4 6 6 7 8 10 10 11 11 10 10 11 11
2 3 3 2 3 3 3 2 2 2 3 3 3 3 2 2 2 2 2 2 2 1 1 1 1 1 1 2 3 2 2 5 6 6 7 8 9 9 10 10 10 10 11
2 2 2 3 3 3 3 2 2 2 2 2 2 3 3 2 2 2 2 2 2 2 1 1 1 1 1 2 3 2 2 4 4 4 4 5 6 8 8 9 9 10 10
2 2 2 2 3 3 3 2 2 2 2 1 1 3 3 2 2 2 2 2 2 2 2 1 1 1 2 2 1 1 0 1 1 2 3 3 4 5 6 7 8 8 9
2 2 2 1 2 2 2 2 1 1 2 2 3 3 2 2 2 2 2 2 1 1 2 1 1 1 1 1 1 1 1 1 0 2 2 2 2 3 4 5 6 7 7
3 2 2 2 2 2 2 2 2 1 2 2 2 3 2 2 2 1 1 1 1 1 1 1 1 1 1 1 1 2 2 1 1 1 1 1 2 2 2 3 3 4 5
3 2 2 2 2 2 1 1 2 2 2 2 2 2 2 2 2 2 1 2 2 2 1 1 1 1 1 1 1 1 2 2 2 1 1 1 2 2 1 2 2 2 3
3 3 2 2 2 2 1 2 1 1 1 1 2 2 3 5 6 4 3 2 3 2 1 1 1 1 1 2 1 1 1 2 2 1 1 1 1 1 1 2 1 1 2
3 2 2 3 2 2 4 4 2 1 1 1 1 1 2 3 4 4 4 4 3 2 1 1 1 1 2 1 1 1 1 2 3 3 1 2 1 1 2 1 1 1 1
3 3 2 3 3 3 4 3 1 0 1 1 1 1 1 2 2 2 2 1 1 1 1 1 0 2 2 2 1 2 2 1 2 3 2 3 2 2 2 1 2 2 1
4 3 3 3 3 3 5 4 2 1 0 0 0 0 1 1 1 2 1 1 0 1 2 1 1 2 1 1 1 1 2 2 2 2 1 2 2 3 3 1 3 2 2
4 4 4 3 3 3 5 5 3 1 1 1 1 0 1 1 2 3 2 1 1 1 1 1 2 2 2 2 1 2 2 2 2 3 1 1 2 3 3 2 2 3 4
4 4 3 3 4 4 6 7 5 1 1 1 1 0 1 2 2 2 1 0 2 2 1 1 2 3 3 2 2 1 1 1 2 2 2 1 2 2 3 3 2 2 2
Wind_Direction
52 60 71 65 75 84 61 31 44 50 49 42 47 54 55 57 71 82 76 71 68 61 58 58 59 58 55 61 60 57 57 56 54 53 52 50 50 49 45 50 52 49 44
55 63 72 58 59 61 60 71 67 57 59 52 47 45 42 49 69 83 97 75 69 65 59 59 59 58 57 67 68 64 61 58 56 56 55 53 52 51 46 49 49 44 40
46 48 66 66 57 59 52 52 65 59 73 69 60 56 50 42 61 74 89 96 81 69 64 61 62 61 61 67 67 65 64 61 59 58 56 54 53 53 49 47 45 41 40
58 49 53 53 53 63 70 69 56 59 54 55 55 47 56 42 42 57 70 85 85 84 72 69 65 64 65 66 66 64 63 59 57 56 56 52 50 48 48 46 40 34 36
45 67 46 48 53 51 50 67 58 54 58 57 81 71 55 49 33 40 51 65 78 93 95 85 73 68 68 65 64 62 60 57 54 53 52 50 48 46 46 44 39 34 34
33 54 54 50 51 50 44 68 75 56 49 36 49 67 67 77 57 37 40 46 52 76 90 93 88 74 70 65 61 59 58 55 52 52 52 50 48 46 44 42 39 35 33
35 44 48 54 53 57 45 68 70 50 34 48 50 35 38 57 77 63 46 50 52 55 71 86 85 85 73 64 57 56 53 52 50 50 50 49 46 43 43 40 37 34 31
40 50 57 70 68 61 49 60 67 41 5 32 55 54 66 27 20 61 60 57 58 52 48 62 74 80 82 74 56 53 48 45 45 47 47 47 46 43 41 38 35 34 33
44 34 43 65 82 78 72 68 67 61 15 356 46 68 70 79 22 19 46 66 61 53 46 44 54 64 77 75 63 45 46 40 39 42 43 44 44 42 40 38 36 35 35
63 43 35 44 70 74 71 56 73 68 60 11 360 13 75 120 127 82 9 47 63 61 52 54 52 53 65 74 68 57 48 40 38 39 42 42 41 38 37 38 37 35 34
62 63 42 36 55 63 70 63 61 50 55 50 19 3 14 12 35 107 100 21 37 49 67 67 64 57 58 70 71 60 55 46 41 40 39 39 39 37 37 39 35 32 29
61 66 61 46 52 52 59 62 66 61 44 34 22 28 44 34 22 54 84 86 90 55 71 72 77 68 68 73 68 61 63 54 47 41 37 34 33 32 33 34 33 29 24
90 75 73 61 57 50 55 53 58 72 66 56 35 23 32 27 39 61 70 58 60 65 74 60 75 70 74 82 68 62 70 59 52 46 38 33 30 27 27 28 30 27 25
106 108 95 88 77 54 65 55 33 33 49 63 58 49 35 25 37 57 69 67 34 19 50 56 51 62 67 86 69 62 77 65 59 52 42 36 32 29 28 29 29 26 26
110 108 113 105 92 67 55 66 48 40 48 40 39 50 46 42 45 42 41 70 93 61 10 36 42 47 62 85 76 65 83 74 67 57 46 40 35 31 29 29 28 27 27
96 114 125 122 116 107 84 59 44 34 69 70 57 58 46 43 41 36 25 25 66 103 75 21 48 51 52 70 80 65 80 88 68 59 46 39 36 32 30 30 31 30 29
112 118 104 106 115 114 108 90 47 28 46 65 70 80 69 58 44 31 35 35 43 73 88 351 25 45 57 46 51 39 60 94 79 75 50 34 32 31 30 30 33 31 28
135 136 126 116 109 105 106 116 102 51 47 47 51 64 63 66 54 40 43 42 53 73 96 63 343 19 29 45 27 4 16 56 58 93 62 23 15 24 33 34 32 29 28
160 152 135 131 118 118 113 103 100 80 76 68 60 60 55 60 49 46 47 37 44 61 78 85 347 348 349 13 21 357 359 344 344 70 83 4 353 351 26 24 26 26 25
152 148 141 128 125 123 114 119 106 83 79 78 74 65 56 60 47 35 46 28 48 53 48 49 4 336 342 339 38 350 341 341 330 339 16 4 335 335 330 344 359 14 17
158 152 146 134 129 124 97 81 88 98 100 95 88 86 87 85 76 60 54 37 41 41 30 29 349 353 342 353 340 307 321 315 319 320 335 304 292 291 274 285 287 326 358
160 157 156 146 137 121 110 95 64 33 35 99 123 120 121 104 100 89 76 63 63 60 41 31 4 340 316 321 323 339 333 351 320 315 341 305 298 279 264 246 211 213 318
168 167 165 154 147 142 138 135 123 346 351 22 74 108 85 93 112 128 99 61 35 50 155 162 271 290 308 315 329 333 328 318 275 286 337 307 316 308 293 274 242 230 279
169 171 178 173 157 165 162 164 177 231 279 299 356 127 138 135 131 121 108 88 214 233 229 206 196 250 279 298 304 295 281 302 306 314 345 296 311 308 308 290 256 266 302
170 172 178 176 169 168 172 170 165 192 205 223 212 232 144 126 94 92 91 4 326 301 267 202 209 241 290 308 333 6 343 339 312 304 328 322 306 310 304 285 284 296 309
172 168 173 177 174 169 175 176 173 182 214 215 184 122 98 114 99 89 113 10 310 301 320 329 311 300 290 296 301 207 221 276 301 305 318 348 315 336 317 304 312 304 297